Marshalltown, IA

3:57 AM CST on December 13, 2019 (GMT -0600)
Marshalltown Municipal

Weather History for KMIW - November, 2019

Change the Weather History Date:

Wednesday, November 13, 2019

  Actual Average Record
Temperature  
Mean Temperature 22 °F 38 °F  
Max Temperature 30 °F 48 °F 79 °F (1999)
Min Temperature 14 °F 28 °F 9 °F (2018)
Degree Days  
Heating Degree Days 43 27  
Month to date heating degree days 481 315  
Since 1 July heating degree days 1133 948  
Cooling Degree Days 0 0  
Month to date cooling degree days 0 0  
Year to date cooling degree days 734 728  
Moisture  
Dew Point 21 °F    
Average Humidity 84    
Maximum Humidity 100    
Minimum Humidity 68    
Precipitation  
Precipitation 0.03 in 0.08 in 0.22 in (2006)
Month to date precipitation 0.13 1.32  
Sea Level Pressure  
Sea Level Pressure 30.03 in    
Wind  
Wind Speed 10 mph (SW)    
Max Wind Speed 22 mph    
Max Gust Speed 30 mph    
Visibility 7 miles    
Events Snow    
T = Trace of Precipitation, MM = Missing Value Source: NWS Daily Summary

Daily Weather History Graph

Daily Weather History Graph

Search for Another Location

Airport or City:

Astronomy

Nov. 13, 2019 Rise Set
Actual Time 6:59 AM CST 4:52 PM CST
Civil Twilight 6:29 AM CST 5:22 PM CST
Nautical Twilight 5:55 AM CST 5:55 PM CST
Astronomical Twilight 5:22 AM CST 6:28 PM CST
Moon 5:55 PM CST 7:53 AM CST
Length of Visible Light 10h 52m
Length of Day
9h 53m
Full, 99% of the Moon is Illuminated
Nov 13
Full
Nov 19
Last Quarter
Nov 26
New
Dec 4
First Quarter
Dec 11
Full

Hourly Weather History & Observations

Time (CST) Temp. Windchill Dew Point Humidity Pressure Visibility Wind Dir Wind Speed Gust Speed Precip Events Conditions
12:53 AM 14.0 °F -3.0 °F 6.1 °F 71% 30.15 in 10.0 mi SSE 18.4 mph 27.6 mph N/A   Clear
1:53 AM 15.1 °F -0.1 °F 8.1 °F 74% 30.12 in 10.0 mi South 15.0 mph 28.8 mph N/A   Clear
2:53 AM 15.1 °F 1.1 °F 9.0 °F 77% 30.10 in 10.0 mi South 12.7 mph - N/A   Clear
3:53 AM 16.0 °F 1.1 °F 10.0 °F 77% 30.06 in 10.0 mi South 15.0 mph 24.2 mph N/A   Clear
4:53 AM 17.1 °F 3.0 °F 10.9 °F 77% 30.04 in 10.0 mi South 13.8 mph - N/A   Overcast
6:53 AM 19.0 °F 6.1 °F 12.9 °F 77% 30.04 in 10.0 mi South 12.7 mph - N/A   Overcast
7:53 AM 19.0 °F 7.5 °F 12.9 °F 77% 30.03 in 10.0 mi South 10.4 mph - N/A   Clear
8:53 AM 19.9 °F 7.9 °F 15.1 °F 81% 30.02 in 10.0 mi South 11.5 mph - N/A   Scattered Clouds
9:53 AM 23.0 °F 11.1 °F 16.0 °F 74% 30.02 in 10.0 mi South 12.7 mph - N/A   Mostly Cloudy
10:53 AM 25.0 °F 13.6 °F 17.1 °F 72% 30.02 in 10.0 mi SSW 12.7 mph - N/A   Mostly Cloudy
11:53 AM 26.1 °F 15.0 °F 18.0 °F 71% 30.01 in 10.0 mi SSW 12.7 mph - N/A   Overcast
12:53 PM 28.0 °F 18.1 °F 19.0 °F 69% 29.99 in 10.0 mi SW 11.5 mph - N/A   Overcast
1:53 PM 28.0 °F 19.3 °F 21.0 °F 75% 29.99 in 10.0 mi SW 9.2 mph - 0.00 in   Overcast
2:27 PM 27.0 °F 19.5 °F 21.9 °F 81% 29.96 in 1.8 mi WSW 6.9 mph - 0.00 in Snow Light Snow
2:33 PM 26.1 °F 17.6 °F 23.0 °F 88% 29.96 in 0.8 mi WSW 8.1 mph - 0.00 in Snow Light Snow
2:40 PM 26.1 °F 18.4 °F 24.1 °F 92% 29.96 in 1.2 mi WSW 6.9 mph - 0.01 in Snow Light Snow
2:50 PM 26.6 °F 20.0 °F 24.8 °F 93% 29.95 in 1.5 mi SW 5.8 mph - 0.01 in Snow Light Snow
2:53 PM 26.1 °F 18.4 °F 24.1 °F 92% 30.00 in 1.5 mi SW 6.9 mph - 0.01 in Snow Light Snow
3:53 PM 26.1 °F 19.4 °F 26.1 °F 100% 30.02 in 1.5 mi SSW 5.8 mph - 0.01 in Snow Light Snow
4:10 PM 26.1 °F 20.5 °F 26.1 °F 100% 29.97 in 1.2 mi SSW 4.6 mph - 0.00 in Snow Light Snow
4:53 PM 26.1 °F 20.5 °F 26.1 °F 100% 30.03 in 1.8 mi SSW 4.6 mph - 0.01 in Snow Light Snow
5:02 PM 27.0 °F 21.6 °F 27.0 °F 100% 29.98 in 2.0 mi SSW 4.6 mph - 0.00 in Snow Light Snow
5:21 PM 26.1 °F 19.4 °F 26.1 °F 100% 29.99 in 3.0 mi South 5.8 mph - 0.00 in Snow Light Snow
5:53 PM 26.1 °F 20.5 °F 26.1 °F 100% 30.04 in 5.0 mi SW 4.6 mph - 0.00 in Snow Light Snow
6:48 PM 26.6 °F 21.2 °F 26.6 °F 100% 30.02 in 10.0 mi WSW 4.6 mph - 0.00 in   Overcast
6:53 PM 27.0 °F 20.5 °F 26.1 °F 96% 30.06 in 10.0 mi WSW 5.8 mph - 0.00 in   Overcast
7:26 PM 27.0 °F 19.5 °F 26.1 °F 96% 30.02 in 3.0 mi WSW 6.9 mph - 0.00 in Snow Light Snow
7:53 PM 27.0 °F 20.5 °F 26.1 °F 96% 30.07 in 9.0 mi WSW 5.8 mph - 0.00 in   Overcast
8:27 PM 26.1 °F 21.9 °F 26.1 °F 100% 30.03 in 9.0 mi West 3.5 mph - N/A   Overcast
8:53 PM 27.0 °F 23.0 °F 27.0 °F 100% 30.08 in 8.0 mi WSW 3.5 mph - N/A   Overcast
9:27 PM 27.0 °F 21.6 °F 27.0 °F 100% 30.05 in 8.0 mi West 4.6 mph - N/A   Overcast
9:53 PM 28.9 °F 19.8 °F 28.0 °F 96% 30.10 in 9.0 mi NW 10.4 mph - N/A   Overcast
10:53 PM 30.0 °F 21.7 °F 28.0 °F 92% 30.11 in 10.0 mi NW 9.2 mph - N/A   Overcast
11:33 PM 28.9 °F 20.4 °F 27.0 °F 92% 30.08 in 10.0 mi NW 9.2 mph - N/A   Overcast
11:53 PM 25.0 °F 16.3 °F 23.0 °F 92% 30.12 in 10.0 mi NW 8.1 mph - N/A   Scattered Clouds